QPF
0.04 0.03 0.04 0.05 0.02 0.02 0.01 0.01 0.03 0.03 0.03 0.04 0.06 0.06 0.05 0.04 0.02 0.02 0.03 0.04 0.03 0.02 0.02 0.06 0.08 0.09 0.10 0.07 0.07 0.06 0.07 0.08 0.11 0.10 0.07 0.06 0.05 0.05 0.06 0.04 0.03 0.03 0.04 0.05 0.06 0.09 0.10 0.11 0.10
0.02 0.02 0.03 0.03 0.03 0.02 0.01 0.02 0.02 0.02 0.02 0.02 0.03 0.03 0.03 0.03 0.03 0.03 0.02 0.03 0.02 0.01 0.02 0.04 0.08 0.08 0.06 0.05 0.05 0.06 0.07 0.10 0.09 0.08 0.05 0.05 0.04 0.05 0.04 0.03 0.03 0.04 0.04 0.05 0.06 0.07 0.08 0.08 0.07
0.01 0.02 0.01 0.01 0.02 0.02 0.02 0.02 0.03 0.02 0.01 0.01 0.02 0.01 0.01 0.03 0.03 0.03 0.03 0.02 0.01 0.00 0.01 0.05 0.07 0.06 0.05 0.05 0.04 0.03 0.05 0.06 0.07 0.08 0.05 0.05 0.05 0.04 0.04 0.04 0.04 0.04 0.05 0.05 0.04 0.05 0.05 0.05 0.05
0.02 0.02 0.01 0.01 0.02 0.02 0.02 0.02 0.02 0.03 0.02 0.02 0.02 0.01 0.01 0.03 0.03 0.04 0.03 0.01 0.00 0.00 0.01 0.03 0.04 0.04 0.03 0.04 0.03 0.03 0.02 0.04 0.05 0.06 0.06 0.06 0.06 0.04 0.03 0.03 0.04 0.05 0.05 0.04 0.03 0.03 0.03 0.03 0.03
0.02 0.02 0.01 0.01 0.01 0.01 0.02 0.01 0.02 0.08 0.05 0.02 0.01 0.02 0.03 0.03 0.01 0.02 0.02 0.00 0.00 0.00 0.00 0.01 0.04 0.04 0.04 0.03 0.03 0.02 0.03 0.04 0.05 0.06 0.07 0.08 0.05 0.03 0.03 0.02 0.04 0.04 0.04 0.03 0.02 0.03 0.03 0.03 0.03
0.03 0.02 0.01 0.01 0.01 0.01 0.01 0.00 0.01 0.05 0.04 0.02 0.01 0.02 0.03 0.03 0.02 0.01 0.01 0.01 0.01 0.00 0.00 0.02 0.04 0.05 0.05 0.05 0.05 0.04 0.07 0.06 0.06 0.06 0.08 0.07 0.04 0.03 0.02 0.02 0.02 0.03 0.03 0.02 0.02 0.01 0.02 0.02 0.03
0.02 0.01 0.00 0.00 0.00 0.00 0.00 0.01 0.01 0.02 0.01 0.01 0.01 0.02 0.02 0.02 0.01 0.00 0.00 0.01 0.01 0.01 0.01 0.02 0.02 0.04 0.05 0.04 0.04 0.04 0.06 0.07 0.06 0.07 0.07 0.07 0.05 0.04 0.04 0.02 0.02 0.02 0.02 0.02 0.02 0.01 0.02 0.02 0.03
0.02 0.01 0.00 0.00 0.00 0.00 0.00 0.00 0.01 0.01 0.01 0.00 0.00 0.01 0.01 0.01 0.01 0.01 0.01 0.01 0.01 0.01 0.01 0.01 0.01 0.01 0.01 0.02 0.03 0.05 0.07 0.07 0.06 0.06 0.06 0.06 0.06 0.05 0.06 0.05 0.04 0.03 0.02 0.02 0.03 0.02 0.02 0.02 0.04
0.02 0.01 0.00 0.00 0.00 0.00 0.00 0.00 0.00 0.01 0.00 0.00 0.00 0.01 0.01 0.01 0.01 0.01 0.02 0.01 0.01 0.01 0.00 0.00 0.01 0.02 0.02 0.01 0.03 0.05 0.06 0.07 0.06 0.06 0.06 0.06 0.04 0.04 0.04 0.05 0.05 0.03 0.03 0.03 0.04 0.03 0.03 0.03 0.04
0.01 0.00 0.00 0.00 0.00 0.00 0.00 0.00 0.00 0.01 0.00 0.00 0.00 0.00 0.00 0.01 0.01 0.01 0.01 0.01 0.00 0.00 0.00 0.00 0.01 0.02 0.02 0.02 0.03 0.03 0.03 0.02 0.02 0.02 0.03 0.03 0.02 0.02 0.02 0.04 0.05 0.05 0.03 0.03 0.03 0.04 0.03 0.01 0.01
0.01 0.00 0.00 0.00 0.00 0.00 0.00 0.00 0.00 0.00 0.01 0.01 0.00 0.00 0.00 0.00 0.00 0.00 0.00 0.00 0.00 0.00 0.00 0.00 0.01 0.01 0.01 0.02 0.02 0.02 0.01 0.00 0.00 0.01 0.01 0.00 0.00 0.01 0.01 0.02 0.03 0.03 0.02 0.01 0.01 0.01 0.00 0.01 0.00
0.01 0.00 0.00 0.00 0.00 0.00 0.00 0.00 0.00 0.00 0.01 0.01 0.00 0.00 0.00 0.00 0.00 0.00 0.00 0.01 0.01 0.01 0.01 0.01 0.00 0.01 0.02 0.02 0.02 0.01 0.00 0.00 0.00 0.00 0.00 0.00 0.00 0.00 0.00 0.01 0.02 0.01 0.01 0.00 0.00 0.00 0.00 0.01 0.00
0.01 0.00 0.00 0.00 0.00 0.00 0.00 0.01 0.01 0.00 0.00 0.00 0.00 0.00 0.00 0.00 0.00 0.00 0.00 0.01 0.01 0.01 0.02 0.01 0.01 0.01 0.02 0.01 0.01 0.01 0.01 0.01 0.01 0.01 0.01 0.01 0.00 0.00 0.00 0.00 0.01 0.01 0.00 0.00 0.00 0.00 0.01 0.02 0.01
0.01 0.00 0.00 0.00 0.00 0.00 0.00 0.01 0.01 0.00 0.00 0.00 0.00 0.00 0.00 0.00 0.00 0.00 0.00 0.00 0.00 0.00 0.01 0.00 0.00 0.01 0.02 0.01 0.01 0.01 0.02 0.01 0.01 0.01 0.01 0.01 0.00 0.00 0.00 0.00 0.00 0.00 0.00 0.00 0.00 0.01 0.01 0.02 0.01
0.00 0.01 0.01 0.00 0.00 0.00 0.00 0.01 0.01 0.00 0.00 0.00 0.00 0.00 0.00 0.00 0.00 0.00 0.00 0.00 0.00 0.00 0.00 0.00 0.00 0.01 0.02 0.02 0.02 0.02 0.01 0.01 0.02 0.01 0.01 0.00 0.00 0.00 0.00 0.00 0.00 0.00 0.00 0.01 0.01 0.02 0.02 0.02 0.01
0.00 0.01 0.01 0.01 0.00 0.00 0.00 0.01 0.01 0.01 0.00 0.00 0.00 0.00 0.00 0.00 0.01 0.01 0.00 0.01 0.01 0.00 0.00 0.00 0.01 0.01 0.01 0.02 0.03 0.02 0.02 0.03 0.03 0.02 0.01 0.01 0.01 0.01 0.01 0.00 0.00 0.00 0.00 0.00 0.01 0.01 0.02 0.01 0.01
0.00 0.00 0.00 0.00 0.00 0.00 0.01 0.00 0.00 0.00 0.00 0.00 0.00 0.00 0.00 0.01 0.01 0.01 0.01 0.01 0.01 0.01 0.01 0.01 0.00 0.00 0.00 0.02 0.04 0.02 0.02 0.02 0.03 0.02 0.02 0.01 0.02 0.02 0.01 0.01 0.00 0.00 0.00 0.00 0.01 0.00 0.01 0.01 0.00
0.00 0.00 0.00 0.00 0.00 0.01 0.01 0.00 0.00 0.00 0.00 0.00 0.00 0.00 0.00 0.00 0.00 0.01 0.01 0.01 0.01 0.01 0.01 0.01 0.00 0.00 0.01 0.02 0.02 0.02 0.02 0.02 0.02 0.02 0.02 0.02 0.02 0.02 0.01 0.01 0.01 0.01 0.00 0.01 0.01 0.01 0.01 0.01 0.01
0.00 0.00 0.00 0.00 0.00 0.01 0.01 0.01 0.01 0.00 0.00 0.00 0.00 0.00 0.00 0.00 0.00 0.01 0.00 0.00 0.00 0.00 0.01 0.01 0.00 0.00 0.00 0.01 0.01 0.01 0.02 0.01 0.02 0.03 0.03 0.04 0.04 0.04 0.03 0.02 0.01 0.01 0.01 0.01 0.01 0.01 0.01 0.01 0.02
0.00 0.00 0.00 0.00 0.00 0.01 0.00 0.00 0.00 0.00 0.00 0.00 0.00 0.00 0.00 0.00 0.00 0.00 0.00 0.00 0.00 0.00 0.00 0.00 0.00 0.00 0.00 0.01 0.01 0.02 0.02 0.02 0.02 0.02 0.03 0.04 0.04 0.05 0.03 0.02 0.01 0.01 0.01 0.01 0.01 0.01 0.01 0.02 0.03
0.00 0.00 0.00 0.00 0.00 0.00 0.01 0.00 0.00 0.00 0.00 0.00 0.00 0.00 0.00 0.00 0.00 0.00 0.00 0.00 0.00 0.00 0.01 0.01 0.01 0.00 0.01 0.01 0.01 0.01 0.01 0.01 0.01 0.01 0.02 0.03 0.03 0.02 0.01 0.01 0.01 0.01 0.02 0.02 0.01 0.01 0.02 0.02 0.03
0.00 0.00 0.00 0.00 0.00 0.00 0.00 0.00 0.00 0.00 0.00 0.00 0.00 0.00 0.00 0.00 0.00 0.01 0.01 0.00 0.00 0.00 0.01 0.01 0.01 0.01 0.01 0.01 0.01 0.01 0.00 0.00 0.00 0.01 0.01 0.02 0.01 0.01 0.01 0.01 0.02 0.02 0.02 0.01 0.01 0.01 0.01 0.01 0.04
0.00 0.00 0.00 0.00 0.00 0.00 0.00 0.00 0.00 0.00 0.00 0.00 0.00 0.00 0.00 0.00 0.00 0.00 0.00 0.00 0.01 0.01 0.01 0.01 0.01 0.01 0.01 0.01 0.01 0.01 0.00 0.00 0.01 0.01 0.01 0.01 0.01 0.00 0.01 0.02 0.02 0.01 0.01 0.01 0.00 0.01 0.01 0.02 0.02
0.00 0.00 0.00 0.00 0.01 0.00 0.00 0.00 0.00 0.00 0.00 0.00 0.00 0.00 0.00 0.00 0.00 0.00 0.00 0.00 0.00 0.01 0.01 0.02 0.01 0.01 0.01 0.01 0.01 0.01 0.00 0.00 0.01 0.01 0.00 0.00 0.01 0.01 0.01 0.01 0.01 0.01 0.01 0.01 0.01 0.01 0.01 0.02 0.03
0.00 0.00 0.00 0.00 0.01 0.01 0.00 0.00 0.00 0.00 0.00 0.00 0.00 0.00 0.00 0.00 0.00 0.00 0.00 0.00 0.00 0.00 0.02 0.02 0.01 0.01 0.01 0.01 0.01 0.01 0.00 0.01 0.01 0.01 0.01 0.01 0.02 0.01 0.01 0.01 0.01 0.01 0.01 0.01 0.01 0.01 0.01 0.02 0.03
0.01 0.00 0.00 0.00 0.00 0.00 0.00 0.00 0.00 0.00 0.00 0.00 0.00 0.00 0.00 0.00 0.00 0.00 0.00 0.00 0.00 0.00 0.01 0.01 0.01 0.01 0.01 0.01 0.01 0.01 0.01 0.01 0.01 0.01 0.01 0.01 0.02 0.01 0.01 0.01 0.01 0.01 0.01 0.02 0.01 0.01 0.01 0.01 0.01
0.01 0.01 0.00 0.00 0.00 0.01 0.00 0.00 0.00 0.00 0.00 0.00 0.00 0.00 0.00 0.00 0.00 0.00 0.00 0.00 0.00 0.00 0.01 0.01 0.01 0.01 0.01 0.01 0.02 0.02 0.01 0.01 0.01 0.01 0.02 0.02 0.03 0.02 0.02 0.02 0.02 0.02 0.02 0.02 0.01 0.01 0.01 0.01 0.01
0.00 0.01 0.01 0.00 0.00 0.00 0.01 0.00 0.00 0.00 0.00 0.01 0.00 0.00 0.00 0.00 0.00 0.00 0.00 0.00 0.00 0.01 0.01 0.02 0.02 0.02 0.02 0.02 0.02 0.02 0.02 0.02 0.02 0.03 0.03 0.04 0.03 0.03 0.02 0.03 0.03 0.03 0.02 0.02 0.02 0.02 0.01 0.01 0.01
0.01 0.01 0.01 0.01 0.01 0.01 0.00 0.00 0.00 0.00 0.01 0.01 0.01 0.00 0.00 0.00 0.01 0.01 0.01 0.01 0.01 0.01 0.01 0.02 0.02 0.02 0.01 0.01 0.02 0.02 0.02 0.03 0.03 0.03 0.04 0.04 0.04 0.03 0.03 0.03 0.03 0.03 0.03 0.03 0.02 0.03 0.02 0.01 0.01
0.01 0.01 0.01 0.01 0.01 0.01 0.01 0.00 0.00 0.00 0.00 0.00 0.00 0.00 0.01 0.01 0.01 0.01 0.01 0.01 0.01 0.01 0.01 0.01 0.02 0.01 0.01 0.01 0.02 0.02 0.02 0.02 0.03 0.03 0.03 0.03 0.03 0.02 0.02 0.02 0.02 0.02 0.02 0.02 0.02 0.03 0.02 0.01 0.01
MSLP
1009.58 1010.58 1011.86 1013.28 1014.66 1015.87 1016.79 1017.39 1017.69 1017.76 1017.72 1017.65 1017.65 1017.71 1017.82 1017.93 1017.94 1017.81 1017.51 1017.06 1016.50 1015.92 1015.39 1014.97 1014.68 1014.51 1014.43 1014.36 1014.26 1014.10 1013.86 1013.57 1013.27 1012.99 1012.78 1012.64 1012.58 1012.56 1012.56 1012.54 1012.48 1012.38 1012.24 1012.09 1011.93 1011.79 1011.67 1011.56 1011.46
1010.20 1011.40 1012.82 1014.30 1015.67 1016.79 1017.56 1017.97 1018.06 1017.92 1017.68 1017.45 1017.30 1017.25 1017.28 1017.33 1017.33 1017.21 1016.96 1016.58 1016.12 1015.66 1015.25 1014.95 1014.77 1014.69 1014.67 1014.65 1014.59 1014.45 1014.24 1013.97 1013.68 1013.42 1013.21 1013.07 1012.99 1012.95 1012.92 1012.87 1012.80 1012.69 1012.56 1012.43 1012.30 1012.18 1012.07 1011.97 1011.86
1010.93 1012.26 1013.76 1015.24 1016.54 1017.53 1018.14 1018.37 1018.28 1017.97 1017.57 1017.21 1016.94 1016.80 1016.75 1016.74 1016.71 1016.59 1016.38 1016.07 1015.72 1015.38 1015.11 1014.94 1014.87 1014.89 1014.94 1014.98 1014.95 1014.85 1014.66 1014.41 1014.14 1013.89 1013.68 1013.52 1013.41 1013.33 1013.26 1013.18 1013.09 1012.99 1012.89 1012.79 1012.71 1012.64 1012.58 1012.50 1012.40
1011.72 1013.13 1014.62 1016.04 1017.22 1018.06 1018.51 1018.59 1018.36 1017.95 1017.47 1017.03 1016.70 1016.48 1016.37 1016.30 1016.22 1016.09 1015.89 1015.64 1015.38 1015.16 1015.02 1014.97 1015.02 1015.12 1015.23 1015.31 1015.32 1015.24 1015.07 1014.85 1014.60 1014.36 1014.16 1013.98 1013.85 1013.73 1013.62 1013.52 1013.42 1013.33 1013.26 1013.22 1013.20 1013.20 1013.19 1013.15 1013.07
1012.53 1013.93 1015.35 1016.64 1017.67 1018.35 1018.67 1018.64 1018.35 1017.91 1017.42 1016.97 1016.62 1016.38 1016.21 1016.09 1015.96 1015.79 1015.59 1015.38 1015.19 1015.06 1015.02 1015.07 1015.19 1015.36 1015.51 1015.61 1015.64 1015.57 1015.43 1015.24 1015.03 1014.82 1014.64 1014.48 1014.33 1014.20 1014.07 1013.95 1013.84 1013.77 1013.73 1013.74 1013.78 1013.84 1013.89 1013.90 1013.83
1013.29 1014.62 1015.90 1017.02 1017.87 1018.40 1018.61 1018.53 1018.25 1017.85 1017.43 1017.05 1016.74 1016.50 1016.31 1016.14 1015.95 1015.75 1015.53 1015.33 1015.18 1015.11 1015.13 1015.24 1015.41 1015.60 1015.75 1015.85 1015.87 1015.81 1015.69 1015.54 1015.39 1015.24 1015.11 1014.99 1014.88 1014.76 1014.63 1014.50 1014.39 1014.33 1014.31 1014.36 1014.45 1014.56 1014.65 1014.68 1014.64
1013.96 1015.14 1016.23 1017.14 1017.80 1018.20 1018.33 1018.26 1018.05 1017.76 1017.47 1017.21 1016.99 1016.80 1016.61 1016.40 1016.17 1015.92 1015.68 1015.47 1015.34 1015.30 1015.36 1015.49 1015.66 1015.83 1015.96 1016.02 1016.01 1015.95 1015.86 1015.76 1015.67 1015.61 1015.57 1015.54 1015.48 1015.40 1015.29 1015.17 1015.07 1015.00 1015.00 1015.06 1015.17 1015.30 1015.41 1015.46 1015.41
1014.50 1015.49 1016.36 1017.04 1017.52 1017.79 1017.88 1017.85 1017.75 1017.62 1017.49 1017.38 1017.28 1017.15 1016.99 1016.77 1016.51 1016.23 1015.96 1015.75 1015.62 1015.60 1015.67 1015.79 1015.94 1016.07 1016.14 1016.15 1016.11 1016.03 1015.95 1015.91 1015.91 1015.95 1016.02 1016.08 1016.11 1016.09 1016.02 1015.92 1015.83 1015.76 1015.74 1015.79 1015.90 1016.02 1016.13 1016.17 1016.13
1014.89 1015.68 1016.31 1016.78 1017.08 1017.25 1017.32 1017.34 1017.36 1017.39 1017.45 1017.49 1017.51 1017.46 1017.34 1017.12 1016.85 1016.55 1016.28 1016.07 1015.96 1015.95 1016.02 1016.14 1016.25 1016.33 1016.34 1016.28 1016.19 1016.10 1016.04 1016.04 1016.12 1016.26 1016.43 1016.60 1016.72 1016.77 1016.76 1016.69 1016.59 1016.52 1016.49 1016.51 1016.59 1016.70 1016.79 1016.82 1016.77
1015.17 1015.75 1016.17 1016.44 1016.59 1016.67 1016.73 1016.81 1016.94 1017.12 1017.32 1017.51 1017.63 1017.66 1017.57 1017.37 1017.10 1016.81 1016.56 1016.38 1016.30 1016.31 1016.40 1016.50 1016.59 1016.62 1016.57 1016.46 1016.33 1016.21 1016.16 1016.19 1016.33 1016.55 1016.81 1017.06 1017.26 1017.39 1017.42 1017.38 1017.30 1017.23 1017.18 1017.19 1017.24 1017.32 1017.39 1017.41 1017.36
1015.38 1015.79 1016.03 1016.13 1016.16 1016.17 1016.22 1016.35 1016.56 1016.85 1017.16 1017.44 1017.63 1017.70 1017.65 1017.47 1017.23 1016.97 1016.75 1016.62 1016.58 1016.64 1016.75 1016.87 1016.95 1016.95 1016.87 1016.72 1016.55 1016.41 1016.35 1016.40 1016.56 1016.82 1017.13 1017.44 1017.70 1017.87 1017.95 1017.95 1017.90 1017.83 1017.79 1017.79 1017.83 1017.89 1017.96 1017.98 1017.94
1015.59 1015.88 1015.98 1015.96 1015.90 1015.86 1015.90 1016.05 1016.31 1016.65 1017.02 1017.34 1017.56 1017.65 1017.61 1017.45 1017.23 1017.01 1016.85 1016.78 1016.80 1016.92 1017.07 1017.22 1017.31 1017.31 1017.21 1017.05 1016.86 1016.70 1016.63 1016.66 1016.82 1017.08 1017.40 1017.72 1018.00 1018.21 1018.33 1018.37 1018.35 1018.32 1018.31 1018.32 1018.37 1018.44 1018.52 1018.56 1018.54
1015.88 1016.08 1016.09 1016.00 1015.88 1015.81 1015.85 1016.00 1016.27 1016.62 1016.97 1017.28 1017.49 1017.57 1017.52 1017.38 1017.19 1017.01 1016.90 1016.89 1016.97 1017.14 1017.34 1017.53 1017.64 1017.66 1017.58 1017.43 1017.24 1017.07 1016.97 1016.98 1017.10 1017.32 1017.60 1017.90 1018.17 1018.39 1018.54 1018.62 1018.67 1018.69 1018.73 1018.79 1018.88 1018.98 1019.07 1019.15 1019.17
1016.29 1016.42 1016.39 1016.27 1016.14 1016.06 1016.09 1016.23 1016.47 1016.78 1017.09 1017.34 1017.50 1017.54 1017.48 1017.33 1017.16 1017.02 1016.95 1016.99 1017.12 1017.33 1017.56 1017.78 1017.93 1017.98 1017.93 1017.80 1017.63 1017.47 1017.35 1017.32 1017.39 1017.54 1017.75 1017.99 1018.23 1018.44 1018.61 1018.75 1018.86 1018.96 1019.07 1019.20 1019.34 1019.49 1019.62 1019.73 1019.79
1016.79 1016.90 1016.86 1016.74 1016.62 1016.56 1016.58 1016.70 1016.90 1017.14 1017.37 1017.55 1017.64 1017.62 1017.53 1017.38 1017.22 1017.11 1017.07 1017.13 1017.28 1017.49 1017.74 1017.96 1018.13 1018.22 1018.21 1018.13 1017.99 1017.85 1017.73 1017.67 1017.68 1017.75 1017.88 1018.05 1018.23 1018.42 1018.61 1018.79 1018.97 1019.15 1019.35 1019.55 1019.75 1019.95 1020.12 1020.25 1020.35
1017.35 1017.45 1017.42 1017.33 1017.25 1017.21 1017.24 1017.34 1017.48 1017.64 1017.78 1017.87 1017.88 1017.81 1017.69 1017.54 1017.40 1017.30 1017.27 1017.33 1017.46 1017.66 1017.88 1018.09 1018.26 1018.37 1018.40 1018.37 1018.29 1018.19 1018.09 1018.01 1017.96 1017.96 1018.01 1018.10 1018.23 1018.39 1018.57 1018.79 1019.03 1019.29 1019.56 1019.83 1020.08 1020.31 1020.51 1020.67 1020.79
1017.88 1017.98 1017.99 1017.95 1017.92 1017.92 1017.96 1018.03 1018.12 1018.19 1018.24 1018.23 1018.17 1018.07 1017.93 1017.78 1017.65 1017.57 1017.54 1017.58 1017.68 1017.82 1017.99 1018.16 1018.31 1018.43 1018.51 1018.54 1018.52 1018.48 1018.41 1018.33 1018.26 1018.21 1018.18 1018.20 1018.27 1018.39 1018.57 1018.80 1019.08 1019.39 1019.71 1020.02 1020.31 1020.55 1020.76 1020.92 1021.05
1018.33 1018.43 1018.48 1018.51 1018.54 1018.58 1018.64 1018.68 1018.71 1018.70 1018.65 1018.56 1018.44 1018.30 1018.16 1018.03 1017.93 1017.87 1017.84 1017.86 1017.91 1017.99 1018.09 1018.20 1018.32 1018.44 1018.55 1018.64 1018.70 1018.72 1018.71 1018.66 1018.58 1018.50 1018.42 1018.37 1018.38 1018.46 1018.61 1018.84 1019.13 1019.46 1019.80 1020.12 1020.41 1020.65 1020.85 1021.00 1021.14
1018.63 1018.75 1018.86 1018.97 1019.07 1019.16 1019.22 1019.24 1019.19 1019.09 1018.94 1018.77 1018.59 1018.43 1018.30 1018.21 1018.15 1018.12 1018.11 1018.11 1018.12 1018.14 1018.18 1018.23 1018.32 1018.43 1018.57 1018.72 1018.85 1018.95 1019.00 1019.00 1018.93 1018.84 1018.73 1018.63 1018.59 1018.61 1018.73 1018.93 1019.20 1019.51 1019.84 1020.14 1020.41 1020.63 1020.80 1020.94 1021.06
1018.78 1018.96 1019.14 1019.33 1019.51 1019.64 1019.70 1019.67 1019.54 1019.33 1019.08 1018.82 1018.58 1018.39 1018.28 1018.23 1018.23 1018.25 1018.28 1018.29 1018.28 1018.26 1018.24 1018.26 1018.32 1018.43 1018.60 1018.79 1019.00 1019.17 1019.29 1019.34 1019.31 1019.22 1019.09 1018.96 1018.86 1018.84 1018.90 1019.06 1019.29 1019.56 1019.85 1020.11 1020.35 1020.53 1020.67 1020.79 1020.91
1018.85 1019.09 1019.37 1019.66 1019.90 1020.07 1020.11 1020.01 1019.78 1019.44 1019.06 1018.69 1018.38 1018.16 1018.06 1018.05 1018.11 1018.20 1018.28 1018.32 1018.33 1018.31 1018.27 1018.27 1018.32 1018.44 1018.63 1018.87 1019.14 1019.38 1019.57 1019.67 1019.68 1019.60 1019.46 1019.31 1019.19 1019.12 1019.13 1019.23 1019.41 1019.63 1019.87 1020.09 1020.28 1020.42 1020.54 1020.65 1020.76
1018.90 1019.24 1019.62 1020.00 1020.31 1020.50 1020.50 1020.31 1019.95 1019.47 1018.94 1018.43 1018.03 1017.76 1017.64 1017.66 1017.78 1017.93 1018.09 1018.19 1018.24 1018.25 1018.23 1018.23 1018.29 1018.43 1018.65 1018.94 1019.25 1019.55 1019.79 1019.94 1019.98 1019.92 1019.80 1019.65 1019.50 1019.41 1019.39 1019.44 1019.57 1019.74 1019.93 1020.11 1020.26 1020.39 1020.49 1020.58 1020.70
1019.01 1019.46 1019.96 1020.43 1020.79 1020.97 1020.92 1020.62 1020.12 1019.47 1018.77 1018.11 1017.59 1017.24 1017.09 1017.12 1017.27 1017.49 1017.71 1017.89 1018.00 1018.06 1018.08 1018.12 1018.21 1018.37 1018.61 1018.93 1019.27 1019.60 1019.88 1020.07 1020.15 1020.13 1020.04 1019.90 1019.77 1019.67 1019.64 1019.67 1019.77 1019.91 1020.07 1020.22 1020.35 1020.46 1020.55 1020.64 1020.76
1019.25 1019.81 1020.41 1020.95 1021.34 1021.50 1021.37 1020.96 1020.30 1019.47 1018.60 1017.79 1017.13 1016.69 1016.48 1016.48 1016.65 1016.91 1017.18 1017.43 1017.61 1017.73 1017.81 1017.89 1018.01 1018.20 1018.46 1018.79 1019.15 1019.50 1019.81 1020.03 1020.15 1020.18 1020.13 1020.04 1019.95 1019.88 1019.87 1019.91 1020.01 1020.14 1020.29 1020.43 1020.55 1020.65 1020.74 1020.84 1020.95
1019.60 1020.26 1020.94 1021.53 1021.92 1022.03 1021.82 1021.29 1020.49 1019.51 1018.48 1017.52 1016.73 1016.19 1015.90 1015.86 1016.01 1016.28 1016.58 1016.87 1017.11 1017.28 1017.41 1017.54 1017.69 1017.89 1018.16 1018.49 1018.85 1019.21 1019.53 1019.77 1019.94 1020.02 1020.04 1020.03 1020.01 1020.01 1020.05 1020.14 1020.27 1020.41 1020.57 1020.71 1020.83 1020.94 1021.03 1021.12 1021.22
1020.02 1020.75 1021.47 1022.07 1022.45 1022.51 1022.22 1021.58 1020.67 1019.56 1018.41 1017.34 1016.45 1015.80 1015.44 1015.34 1015.44 1015.69 1015.99 1016.29 1016.55 1016.76 1016.93 1017.08 1017.25 1017.45 1017.72 1018.03 1018.37 1018.72 1019.04 1019.31 1019.53 1019.68 1019.79 1019.87 1019.96 1020.06 1020.18 1020.33 1020.51 1020.69 1020.86 1021.01 1021.14 1021.25 1021.34 1021.42 1021.51
1020.45 1021.21 1021.93 1022.51 1022.84 1022.84 1022.48 1021.78 1020.79 1019.62 1018.40 1017.27 1016.31 1015.60 1015.17 1015.00 1015.05 1015.24 1015.51 1015.79 1016.04 1016.24 1016.42 1016.57 1016.73 1016.93 1017.16 1017.44 1017.76 1018.08 1018.40 1018.69 1018.95 1019.19 1019.39 1019.59 1019.80 1020.01 1020.23 1020.47 1020.70 1020.92 1021.11 1021.28 1021.41 1021.51 1021.60 1021.67 1021.74
1020.80 1021.55 1022.24 1022.76 1023.03 1022.98 1022.57 1021.84 1020.84 1019.67 1018.46 1017.33 1016.36 1015.63 1015.16 1014.93 1014.91 1015.03 1015.22 1015.44 1015.65 1015.82 1015.97 1016.09 1016.23 1016.39 1016.58 1016.82 1017.08 1017.38 1017.68 1017.99 1018.30 1018.61 1018.92 1019.23 1019.56 1019.89 1020.21 1020.53 1020.82 1021.07 1021.28 1021.44 1021.57 1021.67 1021.74 1021.80 1021.86
1021.04 1021.73 1022.35 1022.80 1023.00 1022.90 1022.48 1021.77 1020.82 1019.72 1018.60 1017.54 1016.63 1015.92 1015.43 1015.16 1015.07 1015.11 1015.21 1015.35 1015.48 1015.58 1015.67 1015.75 1015.83 1015.94 1016.08 1016.25 1016.47 1016.72 1017.00 1017.31 1017.66 1018.03 1018.43 1018.85 1019.28 1019.71 1020.13 1020.50 1020.84 1021.11 1021.32 1021.48 1021.59 1021.67 1021.74 1021.79 1021.85
1021.16 1021.78 1022.30 1022.67 1022.80 1022.67 1022.27 1021.62 1020.77 1019.81 1018.83 1017.90 1017.10 1016.46 1016.00 1015.70 1015.55 1015.50 1015.50 1015.53 1015.56 1015.59 1015.60 1015.61 1015.63 1015.67 1015.74 1015.85 1016.01 1016.21 1016.46 1016.76 1017.12 1017.54 1018.00 1018.49 1019.01 1019.52 1019.99 1020.42 1020.77 1021.05 1021.25 1021.39 1021.48 1021.55 1021.60 1021.66 1021.73
Thickness
5791 5790 5787 5774 5751 5729 5725 5733 5740 5742 5744 5750 5753 5749 5742 5738 5734 5731 5751 5760 5761 5761 5762 5763 5763 5764 5764 5763 5763 5763 5763 5763 5762 5761 5761 5761 5761 5760 5760 5761 5761 5761 5761 5761 5761 5761 5762 5762 5762
5790 5788 5777 5759 5733 5715 5721 5735 5738 5744 5749 5753 5752 5748 5743 5741 5747 5748 5753 5758 5759 5760 5760 5761 5761 5761 5761 5761 5760 5760 5760 5760 5759 5758 5758 5758 5757 5757 5757 5757 5757 5757 5757 5758 5758 5758 5758 5758 5758
5790 5785 5764 5745 5728 5719 5726 5738 5741 5748 5753 5752 5747 5746 5742 5740 5747 5749 5754 5757 5757 5757 5758 5758 5758 5758 5758 5758 5757 5757 5757 5756 5756 5755 5755 5754 5754 5754 5754 5754 5754 5754 5754 5754 5754 5754 5754 5754 5755
5783 5770 5756 5736 5727 5731 5736 5741 5745 5746 5749 5751 5746 5739 5743 5749 5751 5753 5756 5756 5755 5755 5755 5755 5755 5755 5755 5755 5754 5754 5753 5753 5752 5752 5751 5751 5751 5750 5750 5750 5750 5750 5750 5750 5750 5750 5750 5751 5751
5776 5757 5738 5725 5728 5736 5742 5746 5747 5743 5742 5744 5743 5735 5737 5748 5754 5754 5754 5753 5752 5751 5752 5752 5752 5752 5752 5752 5751 5750 5750 5749 5749 5748 5747 5747 5747 5746 5746 5746 5746 5746 5746 5746 5746 5746 5747 5747 5747
5759 5746 5723 5717 5725 5736 5743 5747 5746 5741 5740 5742 5740 5733 5735 5747 5749 5750 5751 5750 5750 5749 5749 5749 5749 5748 5748 5748 5748 5747 5746 5746 5745 5744 5743 5743 5742 5742 5742 5742 5742 5742 5741 5741 5741 5742 5742 5742 5742
5750 5735 5722 5722 5723 5731 5741 5747 5742 5738 5738 5740 5742 5732 5734 5742 5747 5749 5749 5748 5747 5746 5745 5745 5745 5744 5745 5744 5744 5743 5743 5742 5741 5740 5740 5739 5738 5738 5738 5737 5737 5737 5737 5737 5737 5737 5737 5738 5738
5756 5737 5724 5721 5723 5729 5743 5746 5745 5741 5739 5746 5744 5731 5730 5741 5746 5746 5745 5744 5743 5742 5742 5742 5741 5741 5741 5741 5740 5740 5739 5738 5738 5737 5736 5735 5734 5734 5733 5733 5733 5733 5733 5732 5732 5732 5732 5733 5732
5758 5728 5717 5723 5725 5731 5742 5741 5744 5747 5742 5743 5744 5741 5742 5745 5744 5741 5738 5738 5738 5738 5739 5739 5738 5738 5738 5737 5736 5736 5735 5734 5734 5733 5732 5731 5730 5729 5729 5728 5728 5728 5728 5728 5727 5727 5727 5727 5727
5744 5721 5727 5736 5737 5737 5740 5740 5740 5738 5734 5734 5737 5740 5743 5742 5739 5736 5733 5732 5732 5733 5735 5735 5735 5735 5734 5734 5733 5732 5731 5730 5729 5728 5727 5726 5726 5725 5724 5724 5723 5723 5723 5722 5722 5721 5720 5720 5720
5743 5730 5736 5741 5744 5743 5739 5738 5741 5733 5727 5732 5733 5735 5737 5736 5734 5732 5731 5730 5731 5732 5732 5733 5732 5731 5730 5730 5729 5728 5727 5726 5725 5724 5723 5722 5722 5721 5720 5719 5718 5718 5717 5717 5716 5715 5714 5714 5713
5740 5739 5741 5742 5745 5742 5738 5737 5734 5732 5734 5741 5740 5739 5735 5731 5730 5729 5728 5728 5729 5729 5729 5730 5729 5728 5727 5726 5725 5723 5723 5722 5721 5720 5720 5719 5718 5716 5715 5714 5714 5713 5712 5711 5710 5709 5708 5708 5707
5736 5737 5741 5743 5742 5740 5738 5733 5732 5733 5739 5741 5739 5735 5732 5729 5728 5728 5728 5728 5727 5726 5726 5727 5726 5725 5723 5722 5721 5720 5719 5718 5717 5716 5716 5715 5714 5712 5711 5710 5709 5708 5707 5706 5705 5703 5702 5701 5701
5736 5736 5736 5738 5738 5738 5732 5730 5730 5732 5737 5735 5733 5730 5729 5728 5727 5726 5725 5724 5724 5723 5724 5724 5723 5722 5720 5719 5717 5716 5715 5714 5714 5713 5712 5711 5710 5709 5707 5705 5704 5703 5702 5701 5700 5698 5697 5695 5694
5737 5729 5728 5731 5733 5733 5730 5720 5725 5733 5733 5729 5728 5727 5726 5726 5725 5724 5724 5723 5722 5722 5722 5721 5720 5719 5717 5715 5714 5713 5711 5711 5710 5709 5708 5707 5706 5705 5703 5701 5700 5698 5697 5696 5694 5693 5691 5690 5689
5727 5716 5709 5722 5728 5729 5721 5708 5725 5731 5728 5724 5723 5723 5723 5723 5723 5724 5724 5723 5722 5720 5719 5718 5718 5716 5714 5712 5710 5709 5707 5706 5706 5705 5704 5703 5702 5701 5699 5697 5695 5694 5693 5691 5689 5687 5685 5683 5682
5708 5700 5703 5713 5725 5724 5717 5710 5723 5728 5725 5721 5720 5719 5719 5720 5721 5722 5723 5722 5720 5718 5716 5715 5714 5712 5710 5708 5706 5705 5704 5702 5701 5701 5700 5699 5698 5696 5695 5693 5691 5689 5688 5686 5685 5682 5680 5678 5677
5697 5699 5701 5705 5717 5716 5710 5710 5719 5723 5723 5719 5718 5716 5716 5717 5719 5721 5721 5720 5719 5716 5714 5712 5710 5708 5706 5704 5702 5700 5699 5698 5697 5696 5695 5694 5693 5692 5690 5688 5686 5685 5683 5681 5679 5677 5675 5673 5672
5708 5703 5701 5706 5717 5712 5706 5707 5713 5718 5718 5716 5714 5713 5714 5716 5720 5720 5719 5718 5715 5713 5711 5709 5707 5705 5703 5700 5697 5694 5692 5692 5691 5691 5690 5689 5688 5687 5685 5684 5682 5680 5678 5676 5674 5672 5670 5668 5667
5707 5701 5699 5705 5714 5710 5703 5705 5712 5716 5716 5717 5716 5714 5714 5715 5716 5716 5715 5714 5712 5710 5708 5706 5704 5702 5700 5698 5695 5692 5689 5687 5687 5686 5686 5685 5683 5682 5681 5679 5677 5675 5673 5671 5669 5667 5664 5662 5661
5704 5700 5700 5700 5705 5705 5701 5698 5706 5714 5717 5718 5717 5716 5716 5715 5714 5713 5712 5711 5710 5708 5706 5705 5702 5699 5697 5694 5691 5688 5685 5683 5681 5681 5680 5680 5679 5677 5676 5674 5672 5670 5668 5665 5664 5662 5660 5657 5656
5696 5710 5707 5701 5690 5682 5691 5675 5697 5704 5708 5713 5714 5713 5714 5715 5714 5712 5711 5709 5708 5708 5706 5703 5699 5696 5693 5691 5688 5684 5680 5677 5676 5676 5675 5675 5674 5673 5671 5670 5668 5666 5664 5661 5659 5658 5656 5654 5650
5705 5711 5704 5698 5688 5678 5681 5674 5685 5698 5702 5708 5712 5713 5714 5715 5714 5712 5711 5710 5709 5707 5703 5700 5697 5693 5690 5687 5685 5681 5677 5675 5673 5672 5670 5669 5668 5668 5667 5665 5663 5661 5659 5657 5655 5654 5652 5650 5647
5709 5699 5690 5679 5673 5664 5675 5670 5677 5691 5702 5709 5713 5714 5715 5714 5713 5712 5710 5708 5706 5703 5700 5696 5693 5689 5687 5684 5681 5678 5675 5671 5668 5666 5665 5664 5663 5662 5662 5660 5658 5656 5655 5653 5651 5649 5647 5645 5643
5699 5680 5661 5658 5650 5656 5674 5671 5679 5703 5709 5712 5714 5714 5715 5713 5711 5709 5706 5704 5701 5699 5696 5693 5689 5686 5683 5680 5677 5675 5672 5669 5666 5663 5661 5659 5657 5656 5656 5655 5653 5651 5650 5648 5647 5645 5643 5641 5639
5690 5680 5659 5650 5647 5654 5668 5667 5688 5708 5712 5714 5715 5714 5713 5710 5708 5707 5705 5703 5700 5697 5694 5690 5687 5683 5680 5677 5674 5672 5669 5665 5662 5660 5658 5655 5654 5652 5651 5650 5648 5646 5645 5643 5642 5640 5638 5636 5635
5684 5676 5677 5659 5655 5650 5658 5671 5691 5707 5708 5709 5710 5709 5708 5707 5706 5705 5703 5701 5698 5695 5692 5689 5685 5681 5678 5674 5671 5668 5665 5662 5659 5656 5654 5651 5649 5648 5646 5644 5643 5641 5639 5638 5636 5634 5632 5631 5629
5692 5678 5664 5655 5645 5641 5654 5663 5673 5693 5698 5702 5703 5703 5704 5704 5703 5702 5700 5698 5696 5693 5690 5686 5683 5679 5675 5671 5667 5665 5661 5658 5656 5652 5649 5647 5645 5643 5641 5638 5637 5635 5634 5632 5630 5628 5627 5625 5624
5680 5674 5664 5652 5650 5640 5640 5658 5687 5690 5696 5696 5698 5700 5700 5699 5698 5698 5696 5695 5692 5689 5686 5682 5678 5674 5670 5666 5663 5660 5657 5654 5651 5647 5645 5642 5640 5638 5635 5633 5631 5629 5627 5626 5624 5622 5621 5619 5618
5686 5677 5664 5654 5649 5642 5639 5656 5692 5691 5693 5694 5694 5696 5697 5696 5695 5693 5692 5689 5686 5684 5681 5678 5674 5670 5667 5663 5659 5655 5651 5648 5645 5642 5640 5637 5634 5632 5630 5627 5625 5623 5621 5620 5618 5617 5615 5613 5612